Ashland, WI

9:41 AM CST on January 20, 2018 (GMT -0600)
Kennedy Memorial

Weather History for KASX - November, 2012

Change the Weather History Date:

Friday, November 23, 2012

  Actual Average Record
Temperature  
Mean Temperature 24 °F 28 °F  
Max Temperature 28 °F 35 °F 57 °F (1908)
Min Temperature 19 °F 20 °F -3 °F (1950)
Degree Days  
Heating Degree Days 42 37  
Month to date heating degree days 732  
Cooling Degree Days 0 0  
Month to date cooling degree days 0  
Moisture  
Dew Point 21 °F    
Average Humidity 84    
Maximum Humidity 93    
Minimum Humidity 68    
Precipitation  
Precipitation 0.00 in - 1.55 in (1983)
Sea Level Pressure  
Sea Level Pressure 29.98 in    
Wind  
Wind Speed 14 mph (NW)    
Max Wind Speed 22 mph    
Max Gust Speed 29 mph    
Visibility 5 miles    
Events Fog , Snow    
T = Trace of Precipitation, MM = Missing Value Source: NWS Daily Summary

Daily Weather History Graph

Daily Weather History Graph

Search for Another Location

Airport or City:

Trip Planner

Search our weather history database for the weather conditions in past years. The results will help you decide how hot, cold, wet, or windy it might be!

Date:

Astronomy

Nov. 23, 2012 Rise Set
Actual Time 7:17 AM CST 4:22 PM CST
Civil Twilight 6:43 AM CST 4:56 PM CST
Nautical Twilight 6:06 AM CST 5:33 PM CST
Astronomical Twilight 5:30 AM CST 6:09 PM CST
Moon 1:50 PM CST (11/23) 2:22 AM CST (11/23)
Length of Visible Light 10h 12m
Length of Day
9h 05m
Waxing Gibbous, 80% of the Moon is Illuminated
Nov 23
Waxing Gibbous
Nov 28
Full
Dec 6
Last Quarter
Dec 13
New
Dec 19
First Quarter

Hourly Weather History & Observations

Time (CST) Temp. Windchill Dew Point Humidity Pressure Visibility Wind Dir Wind Speed Gust Speed Precip Events Conditions
12:00 AM 26.6 °F 14.7 °F 24.8 °F 93% 29.70 in 2.0 mi West 15.0 mph 24.2 mph 0.00 in Snow Light Snow
12:30 AM 26.6 °F 14.3 °F 24.8 °F 93% 29.70 in 4.0 mi West 16.1 mph - 0.00 in Snow Light Snow
12:50 AM 26.6 °F 15.2 °F 24.8 °F 93% 29.71 in 1.8 mi West 13.8 mph - 0.00 in Snow Light Snow
12:53 AM 27.0 °F 14.7 °F 24.1 °F 89% 29.73 in 1.5 mi West 16.1 mph - 0.00 in Snow Light Snow
1:38 AM 26.6 °F 16.2 °F 24.8 °F 93% 29.73 in 2.5 mi West 11.5 mph - 0.00 in Snow Light Snow
1:53 AM 28.0 °F 18.6 °F 26.1 °F 92% 29.76 in 1.5 mi West 10.4 mph - 0.00 in Snow Light Snow
2:03 AM 28.4 °F 18.5 °F 26.6 °F 93% 29.74 in 1.5 mi WNW 11.5 mph - 0.00 in Snow Light Snow
2:12 AM 28.4 °F 19.1 °F 26.6 °F 93% 29.75 in 1.5 mi WNW 10.4 mph - 0.00 in Snow Light Snow
2:19 AM 28.4 °F 18.5 °F 26.6 °F 93% 29.75 in 1.0 mi NW 11.5 mph 18.4 mph 0.00 in Snow Light Snow
2:27 AM 28.4 °F 16.2 °F 26.6 °F 93% 29.76 in 0.8 mi NW 17.3 mph 24.2 mph 0.00 in Snow Light Snow
2:30 AM 28.4 °F 16.2 °F 26.6 °F 93% 29.76 in 1.0 mi NW 17.3 mph 24.2 mph 0.00 in Snow Light Snow
2:37 AM 28.4 °F 17.0 °F 26.6 °F 93% 29.77 in 1.0 mi NW 15.0 mph 24.2 mph 0.00 in Snow Light Snow
2:45 AM 28.4 °F 17.5 °F 26.6 °F 93% 29.77 in 0.5 mi NW 13.8 mph - 0.00 in Fog , Snow Snow
2:51 AM 28.4 °F 14.7 °F 24.8 °F 86% 29.78 in 1.0 mi NW 21.9 mph 27.6 mph 0.00 in Snow Light Snow
2:53 AM 28.0 °F 14.9 °F 24.1 °F 85% 29.80 in 1.2 mi NW 19.6 mph 28.8 mph 0.00 in Snow Light Snow
2:57 AM 26.6 °F 13.8 °F 24.8 °F 93% 29.78 in 3.0 mi NW 17.3 mph 28.8 mph 0.00 in Snow Light Snow
3:21 AM 26.6 °F 14.7 °F 23.0 °F 86% 29.80 in 2.0 mi NW 15.0 mph 24.2 mph 0.00 in Snow Light Snow
3:28 AM 26.6 °F 16.2 °F 24.8 °F 93% 29.81 in 1.0 mi NW 11.5 mph - 0.00 in Snow Light Snow
3:50 AM 26.6 °F 13.8 °F 23.0 °F 86% 29.83 in 1.0 mi NW 17.3 mph 26.5 mph 0.00 in Snow Light Snow
3:53 AM 26.1 °F 12.3 °F 23.0 °F 88% 29.86 in 1.0 mi NW 19.6 mph 26.5 mph 0.00 in Snow Light Snow
4:53 AM 24.1 °F 10.1 °F 21.0 °F 88% 29.91 in 1.0 mi NNW 18.4 mph 25.3 mph 0.00 in Snow Light Snow
5:43 AM 24.8 °F 12.4 °F 21.2 °F 86% 29.92 in 0.8 mi NNW 15.0 mph 21.9 mph 0.00 in Snow Light Snow
5:53 AM 24.1 °F 10.1 °F 21.0 °F 88% 29.96 in 0.8 mi NNW 18.4 mph - 0.00 in Snow Light Snow
6:22 AM 23.0 °F 11.7 °F 21.2 °F 93% 29.94 in 1.0 mi NW 11.5 mph 25.3 mph 0.00 in Snow Light Snow
6:53 AM 24.1 °F 12.0 °F 19.9 °F 84% 30.00 in 1.5 mi NW 13.8 mph 24.2 mph 0.00 in Snow Light Snow
7:02 AM 24.8 °F 12.9 °F 19.4 °F 80% 29.96 in 3.0 mi NW 13.8 mph 21.9 mph 0.00 in Snow Light Snow
7:53 AM 24.1 °F 9.8 °F 19.0 °F 81% 30.04 in 10.0 mi NNW 19.6 mph 28.8 mph 0.00 in   Overcast
8:53 AM 24.1 °F 11.0 °F 18.0 °F 77% 30.09 in 10.0 mi NNW 16.1 mph - 0.00 in   Overcast
9:53 AM 24.1 °F 13.1 °F 17.1 °F 75% 30.13 in 5.0 mi NW 11.5 mph 26.5 mph 0.00 in Snow Light Snow
10:53 AM 24.1 °F 10.6 °F 17.1 °F 75% 30.16 in 10.0 mi NNW 17.3 mph 23.0 mph 0.00 in   Overcast
11:53 AM 24.1 °F 12.0 °F 17.1 °F 75% 30.18 in 10.0 mi NW 13.8 mph 21.9 mph N/A   Overcast
12:53 PM 24.1 °F 10.6 °F 16.0 °F 71% 30.21 in 10.0 mi NNW 17.3 mph 25.3 mph N/A   Overcast
1:53 PM 24.1 °F 11.5 °F 16.0 °F 71% 30.23 in 10.0 mi NNW 15.0 mph 23.0 mph N/A   Overcast
2:53 PM 24.1 °F 12.0 °F 16.0 °F 71% 30.26 in 10.0 mi NNW 13.8 mph - N/A   Overcast
3:25 PM 23.0 °F 9.2 °F 14.0 °F 68% 30.22 in 10.0 mi NW 17.3 mph 23.0 mph N/A   Overcast
3:53 PM 23.0 °F 12.4 °F 15.1 °F 72% 30.28 in 10.0 mi NW 10.4 mph - N/A   Overcast
4:51 PM 21.2 °F 11.7 °F 15.8 °F 80% 30.25 in 8.0 mi NW 8.1 mph - 0.00 in Snow Light Snow
4:53 PM 21.9 °F 11.7 °F 16.0 °F 78% 30.30 in 7.0 mi NNW 9.2 mph - 0.00 in Snow Light Snow
5:53 PM 21.9 °F 8.2 °F 14.0 °F 72% 30.32 in 10.0 mi NW 16.1 mph 21.9 mph 0.00 in   Overcast
6:53 PM 21.9 °F 12.5 °F 14.0 °F 72% 30.33 in 10.0 mi NW 8.1 mph 16.1 mph N/A   Overcast
7:53 PM 21.0 °F 12.4 °F 15.1 °F 78% 30.32 in 9.0 mi NW 6.9 mph - 0.00 in Snow Light Snow
8:53 PM 21.0 °F 10.6 °F 15.1 °F 78% 30.32 in 7.0 mi NW 9.2 mph - 0.00 in Snow Light Snow
9:53 PM 19.9 °F 10.1 °F 14.0 °F 78% 30.32 in 9.0 mi NW 8.1 mph - 0.00 in Snow Light Snow
10:53 PM 19.9 °F 12.1 °F 14.0 °F 78% 30.32 in 8.0 mi NW 5.8 mph - 0.00 in Snow Light Snow